Location: Unspecified
(40.9908°N, 0.0000°E)
Time: 09:56:41
(UTC+00:00)

Tiangong 2 - Visible Passes

Search period start: 23 May 2019 00:00
Search period end: 02 June 2019 00:00
Orbit: 379 x 387 km, 42.8° (Epoch: 23 May)

Date Brightness Start Highest point End Pass type
(mag) Time Alt. Az. Time Alt. Az. Time Alt. Az.
23 May 1.5 21:09:52 10° W 21:12:58 59° N 21:14:12 32° ENE visible
24 May 1.4 20:09:46 10° W 20:12:53 66° N 20:16:00 10° ENE visible
24 May 1.9 21:46:37 10° WNW 21:49:05 50° WNW 21:49:05 50° WNW visible
25 May 1.5 20:46:33 10° WNW 20:49:39 61° N 20:51:42 19° E visible
25 May 3.8 22:23:18 10° W 22:23:53 14° W 22:23:53 14° W visible
26 May 0.9 21:23:15 10° WNW 21:26:23 87° SSW 21:26:27 84° SE visible
27 May 1.2 20:23:11 10° WNW 20:26:19 71° N 20:28:59 13° E visible
27 May 3.3 22:00:01 10° W 22:01:09 19° W 22:01:09 19° W visible
28 May 1.1 20:59:51 10° W 21:02:57 59° SSW 21:03:41 43° SE visible
29 May 1.0 19:59:46 10° WNW 20:02:55 88° S 20:06:02 10° ESE visible
29 May 3.1 21:36:52 10° W 21:38:23 19° WSW 21:38:23 19° WSW visible
30 May 1.9 20:36:31 10° W 20:39:26 36° SSW 20:40:56 22° SSE visible
31 May 3.5 21:14:12 10° WSW 21:15:41 13° SW 21:15:41 13° SW visible
01 Jun 2.8 20:13:19 10° W 20:15:50 22° SSW 20:18:18 10° SSE visible
